Tracking 29892 objects as of 21-Nov-2024
HD Live streaming from Space Station
objects crossing your sky now

CZ-6A DEB

Track CZ-6A DEB now!
10-day predictions


NORAD ID: 54321
Int'l Code: 2022-151BQ
Perigee: 679.4 km
Apogee: 854.1 km
Inclination: 98.7 °
Period: 100.0 minutes
Semi major axis: 7137 km
RCS: Unknown
Launch date: November 11, 2022
Source: People's Republic of China (PRC)
Launch site: Taiyaun Space Center, China (TSC)

Note: This is SATELLITE DEBRIS
Your satellite tracking list
Your tracking list is empty




NASA's NSSDC Master Catalog

Two Line Element Set (TLE):
1 54321U 22151BQ  24325.73520791  .00002712  00000-0  80856-3 0  9998
2 54321  98.6564 347.7745 0122436 265.9719  92.7466 14.39662694105728
Source of the keplerian elements: AFSPC